Regional Weather Roundup
Issued by NWS Grand Forks, ND

Home | Current Version | Previous Version | Graphics & Text | Print | Product List | Glossary On
Versions: 1 2 3 4 5 6 7 8 9 10 11 12 13 14 15 16 17 18 19 20 21 22 23 24 25 26 27 28 29 30 31 32 33 34 35 36 37 38 39 40 41 42 43 44 45 46 47 48 49 50
000
ASUS43 KFGF 281410
RWRFGF
PRAIRIE TO PINES  WEATHER ROUNDUP
NATIONAL WEATHER SERVICE EASTERN NORTH DAKOTA/GRAND FORKS ND
900 AM CDT SAT MAY 28 2016

 **SATELLITE DATA USED TO AUGMENT SKY COVER AT AUTOMATED STATIONS**
 *****  WEATHER ACROSS EASTERN NORTH DAKOTA  *****

CITY           SKY/WX    TMP DP  RH WIND       PRES   REMARKS
GRAND FORKS    MOSUNNY   68  54  60 CALM      29.82F
GRAND FRKS AFB SUNNY     67  56  70 VRB2      29.83F
GRAND FRKS NWS   N/A     66 N/A N/A NW1         N/A
DEVILS LAKE    CLOUDY    57  55  94 N7        29.88S
FARGO          MOSUNNY   65  57  75 NE6       29.81R
WAHPETON ARPT  CLOUDY    63  54  72 E8        29.80S
$$

 ***** WEATHER ACROSS CENTRAL AND WESTERN NORTH DAKOTA  *****

CITY           SKY/WX    TMP DP  RH WIND       PRES   REMARKS
BISMARCK       CLOUDY    59  55  87 NE8       29.88R
MINOT          CLOUDY    58  53  84 N8        29.89S
JAMESTOWN      CLOUDY    62  58  86 N12       29.84R
MINOT AFB      CLOUDY    54  52  91 NE7       29.89S
GARRISON         N/A     58  54  86 E7        29.88S
WILLISTON      CLOUDY    57  52  83 E9        29.89S
DICKINSON      MOSUNNY   52  49  89 E5        29.87R
HETTINGER      PTSUNNY   61  51  70 W5        29.89R
$$

 *****  OTHER AIRPORT OBSERVATIONS IN OUR AREA  *****

CITY           SKY/WX    TMP DP  RH WIND       PRES   REMARKS
WALHALLA       LGT RAIN  57  57 100 NW6       29.87S
GRAFTON AIRPOR FAIR      64  59  82 W5        29.85F
VALLEY CITY AR CLOUDY    61  61 100 NE7       29.85S
CANDO          NOT AVBL
CAVALIER APRT  FAIR      61  61 100 N6        29.86S
GWINNER        CLOUDY    61  61 100 NE6       29.83R
SHEYENNE NWR     N/A     65  60  83 NE2       29.95S
ROLLA          FOG       50  50 100 N10       29.92R VSB 3/4
 ***** THE ABOVE OBSERVATIONS ARE NON NWS ARE NOT QUALITY
       CONTROLLED AND MAY MIS-REPORT RAIN FOR SNOW...
$$

  *****  WEATHER ACROSS NORTHERN MINNESOTA  *****

CITY           SKY/WX    TMP DP  RH WIND       PRES   REMARKS
FLAG ISLAND    CLOUDY    61  57  88 NE9       29.87S
WARROAD        CLOUDY    61  57  88 NE9       29.87S
ROSEAU         CLOUDY    61  55  82 NE5       29.86F
HALLOCK        CLOUDY    64  57  77 NE5       29.85S
THF RVR FALLS  CLOUDY    63  54  72 NE7       29.85S
BAUDETTE       LGT RAIN  60  57  89 N5        29.85S
WASKISH        CLOUDY    57  55  94 NE9       29.83S
CROOKSTON      SUNNY     64  57  77 NE5       29.84R
STEPHEN NDAWN    N/A     66  57  72 NE6         N/A
GREENBUSH NDAW   N/A     64  61  88 NE6         N/A
$$
  *****  WEATHER ACROSS CENTRAL AND WEST MINNESOTA  *****

CITY           SKY/WX    TMP DP  RH WIND       PRES   REMARKS
FOSSTON        MOSUNNY   61  57  88 NE7       29.84R
BEMIDJI        CLOUDY    56  54  91 NE10      29.81S
PARK RAPIDS    CLOUDY    60  53  77 N8        29.79F
ELBOW LAKE     FAIR      60  55  84 NE8       29.80R
WADENA         PTSUNNY   59  54  82 NE5       29.79S
DETROIT LAKES  PTSUNNY   61  54  77 NE5       29.82S
MOORHEAD       MOSUNNY   64  55  72 E6        29.82R
FERGUS FALLS   MOSUNNY   63  54  72 E7        29.77S
MORRIS MN      CLOUDY    63  57  82 NE9       29.78R
STAPLES        CLOUDY    57  54  88 NE3       29.79S
$$
  *****  WEATHER ELSEWHERE ACROSS MINNESOTA  *****

CITY           SKY/WX    TMP DP  RH WIND       PRES   REMARKS
DULUTH         FOG       50  49  96 CALM      29.79R VSB 1/2
INTRNTL FALLS  CLOUDY    60  56  86 N8        29.84S
ELY            CLOUDY    57  55  94 NE6       29.79S FOG
CLOQUET        FOG       52  48  87 CALM      29.79S VSB 1/2
WHEATON        CLOUDY    63  57  82 NE9       29.81S
BRAINERD       CLOUDY    58  55  90 N6        29.78F
HIBBING        CLOUDY    57  56  96 E5        29.78S
ALEXANDRIA     CLOUDY    61  55  81 NE7       29.79F
SAINT CLOUD    CLOUDY    58  56  93 N9        29.76F
MINNEAPOLIS    CLOUDY    62  58  86 NE6       29.76R
$$

  *****  WEATHER ACROSS SOUTH DAKOTA  *****

CITY           SKY/WX    TMP DP  RH WIND       PRES   REMARKS
SIOUX FALLS    LGT RAIN  61  59  93 E6        29.75S FOG
BROOKINGS      RAIN      60  59  96 E8        29.77S
WATERTOWN      LGT RAIN  60  57  89 NE9       29.80R
HURON          CLOUDY    60  59  96 N8        29.79R
SISSETON         N/A     65  56  72 E9        29.79S
ABERDEEN       CLOUDY    62  59  90 NE9       29.81R FOG
MITCHELL       RAIN      60  59  96 N8        29.78R FOG
PIERRE         CLOUDY    59  54  83 NW10      29.82R
MOBRIDGE       MOSUNNY   61  52  72 NW8       29.82R
RAPID CITY     SUNNY     61  47  59 CALM      29.90S
$$

  *****  SOME WEATHER IN NEARBY STATES *****

CITY           SKY/WX    TMP DP  RH WIND       PRES   REMARKS
GLASGOW MT     LGT RAIN  52  52 100 S6        29.88R FOG
GREAT FALLS MT SUNNY     48  34  58 SW12      29.97R
CHEYENNE WY    CLOUDY    55  39  54 W12       30.02R
SCOTTSBLUFF NE SUNNY     52  44  74 NW9       29.95R
OMAHA NE       PTSUNNY   64  58  80 S9        29.77R
DES MOINES IA  PTSUNNY   67  63  87 S7        29.77S
DAVENPORT IA   CLOUDY    72  66  81 S21G26    29.84R
CHICAGO IL     CLOUDY    72  65  78 S17       29.89R
EAU CLAIRE WI  CLOUDY    66  62  87 NW3       29.75R
LA CROSSE WI   CLOUDY    69  66  90 S5        29.73R
$$

  *****  SOME NATIONAL WEATHER *****

CITY           SKY/WX    TMP DP  RH WIND       PRES   REMARKS
LA GUARDIA NY  MOSUNNY   82  68  62 SW6       30.12S
RALEIGH NC     MOSUNNY   75  61  61 VRB3      30.20R
ATLANTA GA     MOSUNNY   76  52  43 SE8       30.17R
NEW ORLEANS LA CLOUDY    79  71  76 SE10      29.96R
OKLAHOMA CITY  PTSUNNY   67  62  84 S7        29.94R
ALBUQUERQUE NM SUNNY     56  31  38 N6        30.09R
SALT LAKE CITY MOSUNNY   59  44  57 CALM      30.02S
LOS ANGELES CA CLOUDY    60  55  83 W3        29.87R
BOISE ID       SUNNY     47  31  53 W6        30.08R
SEATTLE WA     CLOUDY    50  46  86 S9        30.09F
$$

*** WEATHER ACROSS MANITOBA...SASKATCHEWAN AND ONTARIO ***
                ***ONTARIO***

CITY           SKY/WX    TMP DP  RH WIND       PRES   REMARKS
GERALDTON      LGT RAIN  59  57  94 NE10      29.94R FOG
THUNDER BAY    LGT RAIN  59  57  94 E9        29.82S FOG
SIOUX LOOKOUT  DRIZZLE   55  54  94 VRB5      29.92S FOG
TORONTO        PTSUNNY   81  64  57 SW5       30.06S
BIG TROUT LK   CLOUDY    37  36  93 E8        30.20R
PICKLE LAKE    DRIZZLE   45  43  93 NE12G20   30.04R FOG
DRYDEN         CLOUDY    57  55  94 NE13      29.90R
KENORA         CLOUDY    57  55  94 NE8       29.91S
$$
                *** MANITOBA***

CITY           SKY/WX    TMP DP  RH WIND       PRES   REMARKS
BRANDON        CLOUDY    52  50  93 NE17G25   29.93S
DAUPHIN        CLOUDY    48  48 100 NE12      29.99S FOG
ISLAND LAKE    NOT AVBL
PILOT MOUND      N/A     54  54 100 NE7         N/A
THE PAS        CLOUDY    45  39  81 E8        30.09S
THOMPSON       DRIZZLE   39  36  87 E6        30.20S
WINNIPEG       CLOUDY    57  57 100 NE10      29.90S
LYNN LAKE      CLOUDY    37  34  87 SE7       30.17R
CHURCHILL      CLOUDY    32  28  86 S9        30.36S WCI  24
GILLAM         DRIZZLE   36  34  93 E7        30.27
$$
                ***SASKATCHEWAN***

CITY           SKY/WX    TMP DP  RH WIND       PRES   REMARKS
ESTEVAN        CLOUDY    52  50  93 E10       29.92S
KINDERSLEY     LGT RAIN  50  48  93 SW9       29.85S
LLOYDMINSTER   LGT RAIN  54  52  94 SE6       29.85S FOG
PRINCE ALBERT  CLOUDY    48  46  93 SE9       29.99R FOG
REGINA         CLOUDY    52  48  87 E14       29.93S
YORKTON        CLOUDY    50  46  87 NE9       29.98F
N. BATTLEFORD  CLOUDY    54  52  94 SE25G31   29.89S
LA RONGE       CLOUDY    46  41  81 E12       30.03R
SASKATOON      CLOUDY    52  50  93 SE12      29.94R
SWIFT CURRENT  LGT RAIN  52  52 100 SE7       29.85S FOG
$$
NOTE: THESE ARE AUTOMATED STATIONS WITH LIMITED QUALITY CONTROL
      "FAIR" INDICATES FEW OR NO CLOUDS BELOW 12,000 FEET WITH NO
      SIGNIFICANT WEATHER AND/OR OBSTRUCTIONS TO VISIBILITY.
      SKY/WX - SKY CONDITION AND SIGNIFICANT WEATHER.
      TMP - AIR TEMPERATURE.    DP   - DEWPOINT TEMPERATURE.
      RH  - RELATIVE HUMIDITY.  PRES - PRESSURE.
      HX  - HEAT INDEX.         WCI  - WIND CHILL INDEX.
$




USA.gov is the U.S. government's official web portal to all federal, state and local government web resources and services.